When you browse on this site, cookies collect data to enhance your experience and personalize the content and advertising you see.
Visit our Privacy Policy to learn more. By continuing to use the site, you agree to this use of cookies and data.
EN

Hourly Weather Saarbrucken

Today, 13 August, Thursday

Time Temperature Precipitation Wind Pressure Humidity
00:00 +19°C° 0.1 mm 0 mps 738 mmHg 84%
01:00 +19°C° 0 mm 0 mps 738 mmHg 84%
02:00 +19°C° 0 mm 0 mps 737 mmHg 83%
03:00 +19°C° 0 mm 0 mps 737 mmHg 83%
04:00 +21°C° 0 mm 1 mps 737 mmHg 83%
05:00 +22°C° 0 mm 1 mps 738 mmHg 83%
06:00 +22°C° 0 mm 1 mps 738 mmHg 83%
07:00 +24°C° 0 mm 2 mps 738 mmHg 76%
08:00 +25°C° 0 mm 2 mps 738 mmHg 68%
09:00 +27°C° 0 mm 3 mps 738 mmHg 61%
10:00 +28°C° 0 mm 4 mps 739 mmHg 54%
11:00 +30°C° 0 mm 4 mps 739 mmHg 48%
12:00 +32°C° 0 mm 5 mps 739 mmHg 41%
13:00 +32°C° 0 mm 5 mps 739 mmHg 42%
14:00 +30°C° 0 mm 4 mps 738 mmHg 43%
15:00 +30°C° 0 mm 4 mps 738 mmHg 44%
16:00 +29°C° 0 mm 3 mps 738 mmHg 50%
17:00 +28°C° 0 mm 3 mps 738 mmHg 56%
18:00 +27°C° 0 mm 2 mps 738 mmHg 62%
19:00 +25°C° 0.1 mm 1 mps 738 mmHg 66%
20:00 +24°C° 0.1 mm 1 mps 738 mmHg 71%
21:00 +22°C° 0.1 mm 1 mps 738 mmHg 75%
22:00 +22°C° 0.1 mm 1 mps 738 mmHg 77%
23:00 +21°C° 0.1 mm 1 mps 739 mmHg 80%

Tomorrow, 14 August, Friday

Time Temperature Precipitation Wind Pressure Humidity
00:00 +20°C° 0.1 mm 1 mps 739 mmHg 82%
01:00 +20°C° 0.1 mm 1 mps 739 mmHg 85%
02:00 +20°C° 0.1 mm 1 mps 739 mmHg 89%
03:00 +18°C° 0.1 mm 2 mps 739 mmHg 92%
04:00 +19°C° 0.1 mm 2 mps 739 mmHg 91%
05:00 +19°C° 0.1 mm 2 mps 739 mmHg 91%
06:00 +19°C° 0.1 mm 2 mps 739 mmHg 90%
07:00 +20°C° 0.1 mm 3 mps 739 mmHg 86%
08:00 +21°C° 0.1 mm 3 mps 739 mmHg 82%
09:00 +22°C° 0.1 mm 3 mps 739 mmHg 77%
10:00 +24°C° 0.2 mm 3 mps 739 mmHg 72%
11:00 +25°C° 0.2 mm 3 mps 739 mmHg 67%
12:00 +26°C° 0.2 mm 3 mps 739 mmHg 62%
13:00 +26°C° 0.3 mm 3 mps 739 mmHg 63%
14:00 +26°C° 0.3 mm 3 mps 738 mmHg 63%
15:00 +27°C° 0.3 mm 3 mps 738 mmHg 64%
16:00 +26°C° 0.6 mm 3 mps 738 mmHg 69%
17:00 +24°C° 0.6 mm 2 mps 738 mmHg 75%
18:00 +23°C° 0.6 mm 1 mps 738 mmHg 80%
19:00 +21°C° 0.3 mm 2 mps 738 mmHg 83%
20:00 +20°C° 0.3 mm 2 mps 738 mmHg 86%
21:00 +19°C° 0.3 mm 2 mps 739 mmHg 90%
22:00 +19°C° 0 mm 2 mps 739 mmHg 91%
23:00 +19°C° 0 mm 1 mps 739 mmHg 93%

Day after tomorrow, 15 August, Saturday

Time Temperature Precipitation Wind Pressure Humidity
00:00 +19°C° 0 mm 1 mps 738 mmHg 94%
01:00 +18°C° 0 mm 1 mps 738 mmHg 95%
02:00 +18°C° 0 mm 1 mps 738 mmHg 95%
03:00 +17°C° 0 mm 2 mps 738 mmHg 96%
04:00 +17°C° 0.1 mm 2 mps 739 mmHg 96%
05:00 +18°C° 0.1 mm 2 mps 739 mmHg 95%
06:00 +18°C° 0.1 mm 2 mps 739 mmHg 94%
07:00 +19°C° 0.1 mm 2 mps 739 mmHg 91%
08:00 +20°C° 0.1 mm 2 mps 739 mmHg 87%
09:00 +21°C° 0.1 mm 2 mps 739 mmHg 83%
10:00 +23°C° 0.7 mm 2 mps 739 mmHg 78%
11:00 +24°C° 0.7 mm 2 mps 739 mmHg 74%
12:00 +25°C° 0.7 mm 2 mps 739 mmHg 69%
13:00 +26°C° 0.6 mm 2 mps 738 mmHg 66%
14:00 +26°C° 0.6 mm 1 mps 738 mmHg 64%
15:00 +27°C° 0.6 mm 1 mps 738 mmHg 62%
16:00 +26°C° 0.1 mm 1 mps 738 mmHg 66%
17:00 +25°C° 0.1 mm 1 mps 737 mmHg 70%
18:00 +24°C° 0.1 mm 1 mps 737 mmHg 75%
19:00 +23°C° 0.1 mm 1 mps 737 mmHg 78%
20:00 +22°C° 0.1 mm 1 mps 737 mmHg 82%
21:00 +18°C° 0.1 mm 0 mps 738 mmHg 86%
22:00 +18°C° 0 mm 0 mps 737 mmHg 87%
23:00 +18°C° 0 mm 0 mps 737 mmHg 88%

16 August, Sunday

Time Temperature Precipitation Wind Pressure Humidity
00:00 +17°C° 0 mm 0 mps 737 mmHg 89%
01:00 +17°C° 0 mm 0 mps 737 mmHg 90%
02:00 +17°C° 0 mm 0 mps 737 mmHg 90%
03:00 +17°C° 0 mm 0 mps 737 mmHg 91%
04:00 +17°C° 0 mm 0 mps 737 mmHg 89%
05:00 +18°C° 0 mm 0 mps 737 mmHg 87%
06:00 +19°C° 0 mm 0 mps 737 mmHg 85%
07:00 +21°C° 0 mm 0 mps 737 mmHg 77%
08:00 +25°C° 0 mm 1 mps 737 mmHg 70%
09:00 +27°C° 0 mm 1 mps 738 mmHg 62%
10:00 +28°C° 0 mm 1 mps 737 mmHg 56%
11:00 +29°C° 0 mm 1 mps 737 mmHg 50%
12:00 +30°C° 0 mm 2 mps 737 mmHg 44%
13:00 +30°C° 0 mm 2 mps 737 mmHg 43%
14:00 +30°C° 0 mm 2 mps 736 mmHg 41%
15:00 +31°C° 0 mm 2 mps 736 mmHg 40%
16:00 +29°C° 0 mm 2 mps 736 mmHg 46%
17:00 +28°C° 0 mm 1 mps 736 mmHg 52%
18:00 +26°C° 0 mm 1 mps 736 mmHg 59%
19:00 +25°C° 0 mm 1 mps 736 mmHg 61%
20:00 +23°C° 0 mm 1 mps 736 mmHg 64%
21:00 +20°C° 0 mm 0 mps 736 mmHg 67%
22:00 +20°C° 0.2 mm 0 mps 736 mmHg 70%
23:00 +19°C° 0.2 mm 0 mps 735 mmHg 72%

17 August, Monday

Time Temperature Precipitation Wind Pressure Humidity
00:00 +19°C° 0.2 mm 0 mps 735 mmHg 75%
01:00 +20°C° 0.5 mm 1 mps 735 mmHg 79%
02:00 +20°C° 0.5 mm 1 mps 735 mmHg 82%
03:00 +19°C° 0.5 mm 2 mps 735 mmHg 86%
04:00 +19°C° 1.3 mm 2 mps 736 mmHg 89%
05:00 +19°C° 1.3 mm 2 mps 736 mmHg 92%
06:00 +19°C° 1.3 mm 2 mps 736 mmHg 95%
07:00 +19°C° 0.4 mm 2 mps 736 mmHg 93%
08:00 +19°C° 0.4 mm 2 mps 737 mmHg 92%
09:00 +20°C° 0.4 mm 2 mps 737 mmHg 90%
10:00 +20°C° 0.4 mm 2 mps 737 mmHg 88%
11:00 +20°C° 0.4 mm 3 mps 737 mmHg 85%
12:00 +21°C° 0.4 mm 3 mps 737 mmHg 83%
13:00 +22°C° 0 mm 3 mps 737 mmHg 76%
14:00 +24°C° 0 mm 3 mps 737 mmHg 69%
15:00 +25°C° 0 mm 3 mps 737 mmHg 62%
16:00 +24°C° 0 mm 3 mps 737 mmHg 64%
17:00 +23°C° 0 mm 2 mps 737 mmHg 67%
18:00 +21°C° 0 mm 2 mps 737 mmHg 69%
19:00 +20°C° 0 mm 2 mps 737 mmHg 73%
20:00 +20°C° 0 mm 1 mps 737 mmHg 76%
21:00 +18°C° 0 mm 1 mps 737 mmHg 80%
22:00 +18°C° 0 mm 1 mps 737 mmHg 82%
23:00 +18°C° 0 mm 1 mps 737 mmHg 83%

18 August, Tuesday

Time Temperature Precipitation Wind Pressure Humidity
00:00 +16°C° 0 mm 1 mps 737 mmHg 85%
01:00 +16°C° 0 mm 1 mps 737 mmHg 87%
02:00 +16°C° 0 mm 1 mps 737 mmHg 88%
03:00 +15°C° 0 mm 1 mps 737 mmHg 89%
04:00 +16°C° 0 mm 2 mps 737 mmHg 87%
05:00 +16°C° 0 mm 2 mps 737 mmHg 85%
06:00 +17°C° 0 mm 2 mps 737 mmHg 83%
07:00 +19°C° 0 mm 3 mps 738 mmHg 77%
08:00 +20°C° 0 mm 3 mps 738 mmHg 72%
09:00 +22°C° 0 mm 4 mps 738 mmHg 66%
10:00 +23°C° 0.1 mm 5 mps 738 mmHg 62%
11:00 +25°C° 0.1 mm 5 mps 738 mmHg 58%
12:00 +26°C° 0.1 mm 5 mps 738 mmHg 54%
13:00 +26°C° 0.1 mm 5 mps 738 mmHg 53%
14:00 +26°C° 0.1 mm 5 mps 737 mmHg 52%
15:00 +26°C° 0.1 mm 5 mps 737 mmHg 52%
16:00 +25°C° 0 mm 4 mps 737 mmHg 56%
17:00 +22°C° 0 mm 3 mps 737 mmHg 61%
18:00 +21°C° 0 mm 3 mps 738 mmHg 65%
19:00 +20°C° 0 mm 2 mps 738 mmHg 69%
20:00 +19°C° 0 mm 2 mps 738 mmHg 72%
21:00 +18°C° 0 mm 1 mps 738 mmHg 75%
22:00 +18°C° 0 mm 1 mps 738 mmHg 76%
23:00 +18°C° 0 mm 1 mps 738 mmHg 78%
Show more